Location: Newark
(13.0328°N, 9.6142°E)
Time: 04:47:09
(UTC+00:00)

Envisat - Pass Details

Date: 28 October 2019
Orbit: 764 x 766 km, 98.1° (Epoch: 13 November)

Event Time Altitude Azimuth Distance (km) Brightness Sun altitude
Rises 04:46:39 0° 48° (NE) 3,220 6.8 -7.4°
Reaches altitude 10° 04:51:00 10° 84° (E) 2,294 6.9 -6.3°
Maximum altitude 04:52:15 11° 99° (E) 2,234 7.2 -6.0°
Drops below altitude 10° 04:53:30 10° 113° (ESE) 2,293 7.2 -5.7°
Sets 04:57:50 0° 149° (SSE) 3,219 6.9 -4.7°
